This demonstration page uses our WeatherBlox Daily Observations layout. Learn more.

Hourly Observations for November 13, 2016

Temp ( °F °C ) Dew Point ( °F °C ) Humidity (%) Winds ( mph kmh ) Pressure ( in mb ) Visibility ( mi km ) Precip ( " mm )
12:15 am 00:15 Clear 36 2 28 -2 75 75 undefined N/A 30.33 1027 10 16.09344 0 0
12:35 am 00:35 Clear 37 3 28 -2 70 70 undefined N/A 30.33 1027 10 16.09344 0 0
12:55 am 00:55 Clear 34 1 28 -2 81 81 undefined N/A 30.33 1027 10 16.09344 0 0
1:15 am 01:15 Clear 34 1 28 -2 81 81 W 3 6 30.3 1026 10 16.09344 0 0
1:35 am 01:35 Clear 34 1 28 -2 81 81 WSW 3 6 30.33 1027 10 16.09344 0 0
1:55 am 01:55 Clear 32 0 28 -2 87 87 Calm 30.33 1027 10 16.09344 0 0
2:15 am 02:15 Clear 32 0 28 -2 87 87 Calm 30.33 1027 10 16.09344 0 0
2:35 am 02:35 Clear 34 1 28 -2 81 81 Calm 30.3 1026 10 16.09344 0 0
2:55 am 02:55 Clear 34 1 28 -2 81 81 S 3 6 30.3 1026 10 16.09344 0 0
3:15 am 03:15 Clear 34 1 28 -2 81 81 S 3 6 30.3 1026 10 16.09344 0 0
3:35 am 03:35 Clear 32 0 28 -2 87 87 undefined N/A 30.3 1026 10 16.09344 0 0
3:55 am 03:55 Clear 30 -1 28 -2 93 93 W 3 6 30.3 1026 10 16.09344 0 0
4:15 am 04:15 Clear 30 -1 28 -2 93 93 undefined N/A 30.3 1026 10 16.09344 0 0
4:35 am 04:35 Clear 30 -1 28 -2 93 93 SW 3 6 30.3 1026 10 16.09344 0 0
4:55 am 04:55 Clear 32 0 28 -2 87 87 SW 3 6 30.3 1026 10 16.09344 0 0
5:15 am 05:15 Clear 32 0 28 -2 87 87 SSW 3 6 30.3 1026 10 16.09344 0 0
5:35 am 05:35 Clear 30 -1 28 -2 93 93 SW 3 6 30.3 1026 10 16.09344 0 0
5:55 am 05:55 Clear 30 -1 28 -2 93 93 Calm 30.3 1026 10 16.09344 0 0
6:15 am 06:15 Clear 30 -1 28 -2 93 93 Calm 30.3 1026 10 16.09344 0 0
6:35 am 06:35 Clear 28 -2 28 -2 100 100 Calm 30.3 1026 10 16.09344 0 0
6:55 am 06:55 Sunny 30 -1 28 -2 93 93 WSW 3 6 30.3 1026 10 16.09344 0 0
7:15 am 07:15 Sunny 28 -2 27 -3 93 93 WSW 3 6 30.3 1026 10 16.09344 0 0
7:35 am 07:35 Sunny 30 -1 28 -2 93 93 undefined N/A 30.3 1026 10 16.09344 0 0
7:55 am 07:55 Sunny 32 0 30 -1 93 93 undefined N/A 30.3 1026 10 16.09344 0 0
8:15 am 08:15 Sunny 36 2 32 0 87 87 undefined N/A 30.3 1026 10 16.09344 0 0
8:35 am 08:35 Sunny 39 4 32 0 75 75 undefined N/A 30.3 1026 10 16.09344 0 0
8:55 am 08:55 Sunny 43 6 32 0 66 66 undefined N/A 30.3 1026 10 16.09344 0 0
9:15 am 09:15 Sunny 46 8 32 0 57 57 undefined N/A 30.3 1026 10 16.09344 0 0
9:35 am 09:35 Sunny 52 11 30 -1 44 44 undefined N/A 30.3 1026 10 16.09344 0 0
9:55 am 09:55 Sunny 54 12 30 -1 41 41 NW 5 7 30.3 1026 10 16.09344 0 0
10:15 am 10:15 Sunny 54 12 30 -1 41 41 NW 8 13 30.3 1026 10 16.09344 0 0
10:35 am 10:35 Sunny 55 13 28 -2 36 36 WNW 7 11 30.27 1025 10 16.09344 0 0
10:55 am 10:55 Sunny 57 14 28 -2 33 33 WNW 6 9 30.27 1025 10 16.09344 0 0
11:15 am 11:15 Sunny 59 15 27 -3 29 29 N 7 11 30.27 1025 10 16.09344 0 0
11:35 am 11:35 Sunny 59 15 25 -4 27 27 N 5 7 30.27 1025 10 16.09344 0 0
11:55 am 11:55 Sunny 61 16 25 -4 25 25 W 7 11 30.24 1024 10 16.09344 0 0
12:15 pm 12:15 Sunny 61 16 23 -5 23 23 W 8 13 30.24 1024 10 16.09344 0 0
12:35 pm 12:35 Sunny 63 17 23 -5 22 22 W 7 11 30.21 1023 10 16.09344 0 0
12:55 pm 12:55 Sunny 63 17 23 -5 22 22 W 8 13 30.21 1023 10 16.09344 0 0
1:15 pm 13:15 Sunny 63 17 23 -5 22 22 W 7 11 30.21 1023 10 16.09344 0 0
1:35 pm 13:35 Sunny 63 17 23 -5 22 22 NW 3 6 30.21 1023 10 16.09344 0 0
1:55 pm 13:55 Sunny 63 17 23 -5 22 22 NW 7 11 30.18 1022 10 16.09344 0 0
2:15 pm 14:15 Sunny 63 17 23 -5 22 22 Calm 30.18 1022 10 16.09344 0 0
2:35 pm 14:35 Sunny 63 17 23 -5 22 22 NW 5 7 30.18 1022 10 16.09344 0 0
2:55 pm 14:55 Sunny 63 17 23 -5 22 22 NW 5 7 30.15 1021 10 16.09344 0 0
3:15 pm 15:15 Sunny 63 17 25 -4 24 24 WNW 6 9 30.15 1021 10 16.09344 0 0
3:35 pm 15:35 Sunny 63 17 23 -5 22 22 Calm 30.15 1021 10 16.09344 0 0
3:55 pm 15:55 Sunny 63 17 27 -3 25 25 W 5 7 30.15 1021 10 16.09344 0 0
4:15 pm 16:15 Sunny 61 16 28 -2 29 29 Calm 30.15 1021 10 16.09344 0 0
4:35 pm 16:35 Sunny 61 16 23 -5 23 23 SSW 9 15 30.15 1021 10 16.09344 0 0
4:55 pm 16:55 Sunny 59 15 25 -4 27 27 SW 7 11 30.15 1021 10 16.09344 0 0
5:15 pm 17:15 Clear 55 13 25 -4 31 31 SSW 7 11 30.15 1021 10 16.09344 0 0
5:35 pm 17:35 Clear 55 13 23 -5 28 28 S 5 7 30.15 1021 10 16.09344 0 0
5:55 pm 17:55 Clear 52 11 25 -4 35 35 S 7 11 30.15 1021 10 16.09344 0 0
6:15 pm 18:15 Clear 48 9 27 -3 43 43 SSW 6 9 30.18 1022 10 16.09344 0 0
6:35 pm 18:35 Clear 46 8 28 -2 50 50 SSW 5 7 30.18 1022 10 16.09344 0 0
6:55 pm 18:55 Clear 45 7 28 -2 53 53 SW 5 7 30.18 1022 10 16.09344 0 0
7:15 pm 19:15 Clear 45 7 28 -2 53 53 SW 3 6 30.18 1022 10 16.09344 0 0
7:35 pm 19:35 Clear 45 7 27 -3 49 49 SW 3 6 30.18 1022 10 16.09344 0 0
7:55 pm 19:55 Clear 43 6 28 -2 57 57 SW 3 6 30.18 1022 10 16.09344 0 0
8:15 pm 20:15 Clear 43 6 28 -2 57 57 SW 3 6 30.18 1022 10 16.09344 0 0
8:35 pm 20:35 Clear 43 6 28 -2 57 57 SW 3 6 30.18 1022 10 16.09344 0 0
8:55 pm 20:55 Clear 41 5 28 -2 61 61 undefined N/A 30.18 1022 10 16.09344 0 0
9:15 pm 21:15 Clear 43 6 28 -2 57 57 SW 5 7 30.18 1022 10 16.09344 0 0
9:35 pm 21:35 Clear 41 5 28 -2 61 61 SW 5 7 30.18 1022 10 16.09344 0 0
9:55 pm 21:55 Clear 39 4 28 -2 65 65 undefined N/A 30.18 1022 10 16.09344 0 0
10:15 pm 22:15 Clear 41 5 28 -2 61 61 undefined N/A 30.18 1022 10 16.09344 0 0
10:35 pm 22:35 Clear 39 4 28 -2 65 65 undefined N/A 30.18 1022 10 16.09344 0 0
10:55 pm 22:55 Clear 37 3 28 -2 70 70 undefined N/A 30.18 1022 10 16.09344 0 0
11:15 pm 23:15 Clear 36 2 28 -2 75 75 undefined N/A 30.18 1022 10 16.09344 0 0
11:35 pm 23:35 Clear 37 3 28 -2 70 70 undefined N/A 30.18 1022 10 16.09344 0 0
11:55 pm 23:55 Clear 36 2 28 -2 75 75 undefined N/A 30.18 1022 10 16.09344 0 0

Powered by AerisWeather